When you browse on this site, cookies collect data to enhance your experience and personalize the content and advertising you see.
Visit our Privacy Policy to learn more. By continuing to use the site, you agree to this use of cookies and data.
  • In Lithuania
  • List of Countries
  • For 7 days
  • Water Temperature
  • Weather Map
  • Weather Widgets
  • user-avatar
    Login

    Hourly Weather Sharan

    Today, 31 May, Sunday

    Time Temperature Precipitation Wind Pressure Humidity
    00:00 +20°C° 0 mm 1 mps 587 mmHg 55%
    01:00 +20°C° 0 mm 1 mps 587 mmHg 57%
    02:00 +17°C° 0 mm 0 mps 587 mmHg 58%
    03:00 +17°C° 0 mm 0 mps 587 mmHg 59%
    04:00 +16°C° 0 mm 0 mps 587 mmHg 60%
    05:00 +16°C° 0 mm 0 mps 586 mmHg 61%
    06:00 +19°C° 0 mm 1 mps 587 mmHg 53%
    07:00 +20°C° 0 mm 1 mps 588 mmHg 46%
    08:00 +20°C° 0 mm 2 mps 589 mmHg 38%
    09:00 +21°C° 0 mm 2 mps 589 mmHg 31%
    10:00 +23°C° 0 mm 2 mps 589 mmHg 23%
    11:00 +25°C° 0 mm 3 mps 590 mmHg 16%
    12:00 +25°C° 0 mm 3 mps 590 mmHg 14%
    13:00 +26°C° 0 mm 3 mps 590 mmHg 12%
    14:00 +27°C° 0 mm 3 mps 590 mmHg 11%
    15:00 +27°C° 0 mm 3 mps 590 mmHg 11%
    16:00 +28°C° 0 mm 3 mps 589 mmHg 12%
    17:00 +28°C° 0 mm 3 mps 589 mmHg 13%
    18:00 +26°C° 0 mm 4 mps 589 mmHg 21%
    19:00 +25°C° 0 mm 4 mps 588 mmHg 29%
    20:00 +23°C° 0 mm 5 mps 588 mmHg 37%
    21:00 +22°C° 0.1 mm 4 mps 588 mmHg 40%
    22:00 +21°C° 0.1 mm 4 mps 588 mmHg 43%
    23:00 +20°C° 0.1 mm 3 mps 589 mmHg 46%

    Tomorrow, 1 June, Monday

    Time Temperature Precipitation Wind Pressure Humidity
    00:00 +20°C° 0 mm 2 mps 588 mmHg 49%
    01:00 +19°C° 0 mm 2 mps 588 mmHg 51%
    02:00 +20°C° 0 mm 1 mps 588 mmHg 53%
    03:00 +19°C° 0 mm 1 mps 587 mmHg 55%
    04:00 +19°C° 0 mm 1 mps 587 mmHg 57%
    05:00 +16°C° 0 mm 0 mps 587 mmHg 59%
    06:00 +17°C° 0 mm 0 mps 588 mmHg 53%
    07:00 +18°C° 0 mm 0 mps 588 mmHg 47%
    08:00 +19°C° 0 mm 0 mps 589 mmHg 41%
    09:00 +22°C° 0 mm 1 mps 589 mmHg 37%
    10:00 +23°C° 0 mm 2 mps 590 mmHg 32%
    11:00 +25°C° 0 mm 2 mps 590 mmHg 27%
    12:00 +26°C° 0 mm 3 mps 590 mmHg 23%
    13:00 +27°C° 0 mm 3 mps 590 mmHg 19%
    14:00 +28°C° 0 mm 4 mps 590 mmHg 16%
    15:00 +28°C° 0 mm 5 mps 590 mmHg 14%
    16:00 +29°C° 0 mm 5 mps 590 mmHg 13%
    17:00 +29°C° 0 mm 5 mps 590 mmHg 11%
    18:00 +28°C° 0 mm 5 mps 590 mmHg 19%
    19:00 +26°C° 0 mm 5 mps 589 mmHg 26%
    20:00 +23°C° 0 mm 4 mps 589 mmHg 33%
    21:00 +23°C° 0 mm 4 mps 589 mmHg 36%
    22:00 +22°C° 0 mm 4 mps 589 mmHg 38%
    23:00 +21°C° 0 mm 3 mps 588 mmHg 41%

    Day after tomorrow, 2 June, Tuesday

    Time Temperature Precipitation Wind Pressure Humidity
    00:00 +20°C° 0 mm 3 mps 588 mmHg 43%
    01:00 +20°C° 0 mm 2 mps 588 mmHg 45%
    02:00 +20°C° 0 mm 1 mps 587 mmHg 47%
    03:00 +19°C° 0 mm 1 mps 587 mmHg 47%
    04:00 +19°C° 0 mm 1 mps 587 mmHg 47%
    05:00 +18°C° 0 mm 1 mps 586 mmHg 48%
    06:00 +19°C° 0 mm 1 mps 587 mmHg 42%
    07:00 +21°C° 0 mm 1 mps 588 mmHg 36%
    08:00 +21°C° 0 mm 2 mps 589 mmHg 30%
    09:00 +23°C° 0 mm 2 mps 589 mmHg 24%
    10:00 +24°C° 0 mm 2 mps 590 mmHg 17%
    11:00 +25°C° 0 mm 2 mps 590 mmHg 11%
    12:00 +26°C° 0 mm 2 mps 590 mmHg 10%
    13:00 +27°C° 0 mm 2 mps 590 mmHg 9%
    14:00 +28°C° 0 mm 2 mps 590 mmHg 8%
    15:00 +28°C° 0 mm 2 mps 590 mmHg 8%
    16:00 +29°C° 0 mm 2 mps 589 mmHg 8%
    17:00 +29°C° 0 mm 2 mps 589 mmHg 7%
    18:00 +28°C° 0 mm 2 mps 589 mmHg 13%
    19:00 +27°C° 0 mm 2 mps 589 mmHg 18%
    20:00 +26°C° 0 mm 3 mps 588 mmHg 23%
    21:00 +25°C° 0 mm 3 mps 588 mmHg 29%
    22:00 +23°C° 0 mm 4 mps 588 mmHg 36%
    23:00 +22°C° 0 mm 4 mps 588 mmHg 42%

    3 June, Wednesday

    Time Temperature Precipitation Wind Pressure Humidity
    00:00 +22°C° 0.4 mm 3 mps 588 mmHg 41%
    01:00 +21°C° 0.4 mm 2 mps 587 mmHg 40%
    02:00 +21°C° 0.4 mm 1 mps 587 mmHg 39%
    03:00 +21°C° 0.1 mm 1 mps 587 mmHg 39%
    04:00 +20°C° 0.1 mm 1 mps 586 mmHg 40%
    05:00 +20°C° 0.1 mm 1 mps 586 mmHg 40%
    06:00 +20°C° 0.1 mm 1 mps 587 mmHg 36%
    07:00 +20°C° 0.1 mm 2 mps 587 mmHg 33%
    08:00 +21°C° 0.1 mm 2 mps 588 mmHg 29%
    09:00 +23°C° 0 mm 2 mps 588 mmHg 25%
    10:00 +25°C° 0 mm 2 mps 588 mmHg 21%
    11:00 +26°C° 0 mm 2 mps 589 mmHg 17%
    12:00 +27°C° 0 mm 3 mps 589 mmHg 14%
    13:00 +27°C° 0 mm 3 mps 589 mmHg 11%
    14:00 +28°C° 0 mm 4 mps 589 mmHg 8%
    15:00 +28°C° 0 mm 4 mps 589 mmHg 9%
    16:00 +28°C° 0 mm 3 mps 588 mmHg 9%
    17:00 +28°C° 0 mm 3 mps 588 mmHg 9%
    18:00 +27°C° 0 mm 3 mps 588 mmHg 13%
    19:00 +26°C° 0 mm 4 mps 588 mmHg 16%
    20:00 +25°C° 0 mm 4 mps 587 mmHg 20%
    21:00 +24°C° 0 mm 3 mps 587 mmHg 23%
    22:00 +22°C° 0 mm 3 mps 587 mmHg 27%
    23:00 +21°C° 0 mm 2 mps 587 mmHg 30%

    4 June, Thursday

    Time Temperature Precipitation Wind Pressure Humidity
    00:00 +20°C° 0 mm 2 mps 587 mmHg 32%
    01:00 +20°C° 0 mm 2 mps 586 mmHg 33%
    02:00 +20°C° 0 mm 1 mps 586 mmHg 34%
    03:00 +20°C° 0 mm 1 mps 586 mmHg 32%
    04:00 +18°C° 0 mm 2 mps 586 mmHg 31%
    05:00 +18°C° 0 mm 2 mps 585 mmHg 29%
    06:00 +19°C° 0 mm 3 mps 586 mmHg 26%
    07:00 +20°C° 0 mm 4 mps 587 mmHg 22%
    08:00 +21°C° 0 mm 4 mps 587 mmHg 18%
    09:00 +22°C° 0 mm 4 mps 588 mmHg 17%
    10:00 +23°C° 0 mm 4 mps 588 mmHg 15%
    11:00 +25°C° 0 mm 4 mps 589 mmHg 13%
    12:00 +26°C° 0 mm 4 mps 589 mmHg 13%
    13:00 +27°C° 0 mm 4 mps 589 mmHg 12%
    14:00 +28°C° 0 mm 4 mps 589 mmHg 12%
    15:00 +28°C° 0 mm 4 mps 588 mmHg 11%
    16:00 +28°C° 0 mm 4 mps 588 mmHg 11%
    17:00 +28°C° 0 mm 5 mps 588 mmHg 10%
    18:00 +27°C° 0 mm 4 mps 588 mmHg 13%
    19:00 +27°C° 0 mm 3 mps 588 mmHg 15%
    20:00 +26°C° 0 mm 3 mps 588 mmHg 17%
    21:00 +25°C° 0 mm 3 mps 588 mmHg 20%
    22:00 +24°C° 0 mm 3 mps 588 mmHg 22%
    23:00 +23°C° 0 mm 2 mps 588 mmHg 24%

    5 June, Friday

    Time Temperature Precipitation Wind Pressure Humidity
    00:00 +21°C° 0 mm 3 mps 587 mmHg 25%
    01:00 +20°C° 0 mm 3 mps 587 mmHg 27%
    02:00 +20°C° 0 mm 3 mps 587 mmHg 28%
    03:00 +19°C° 0 mm 2 mps 586 mmHg 28%
    04:00 +18°C° 0 mm 2 mps 586 mmHg 28%
    05:00 +18°C° 0 mm 2 mps 586 mmHg 28%
    06:00 +19°C° 0 mm 3 mps 586 mmHg 25%
    07:00 +20°C° 0 mm 3 mps 587 mmHg 23%
    08:00 +21°C° 0 mm 4 mps 588 mmHg 20%
    09:00 +23°C° 0 mm 5 mps 588 mmHg 18%
    10:00 +25°C° 0 mm 5 mps 589 mmHg 16%
    11:00 +26°C° 0 mm 5 mps 589 mmHg 14%
    12:00 +27°C° 0 mm 5 mps 589 mmHg 14%
    13:00 +28°C° 0 mm 5 mps 589 mmHg 13%
    14:00 +29°C° 0 mm 6 mps 589 mmHg 12%
    15:00 +29°C° 0 mm 6 mps 589 mmHg 11%
    16:00 +30°C° 0 mm 6 mps 588 mmHg 11%
    17:00 +30°C° 0 mm 6 mps 588 mmHg 10%
    18:00 +29°C° 0 mm 6 mps 588 mmHg 12%
    19:00 +27°C° 0 mm 6 mps 588 mmHg 14%
    20:00 +26°C° 0 mm 6 mps 588 mmHg 15%
    21:00 +24°C° 0 mm 6 mps 588 mmHg 17%
    22:00 +23°C° 0 mm 6 mps 588 mmHg 19%
    23:00 +22°C° 0 mm 5 mps 588 mmHg 21%
    Show more